Skip Page Navigation
NASA JPL Caltech
NASA Logo - Jet Propulsion Laboratory + View the NASA Portal
+ Near-Earth Object (NEO) Program
Search JPL
JPL Home Earth Solar System Stars & Galaxies Technology
JPL Solar System Dynamics
BODIES ORBITS EPHEMERIDES TOOLS PHYSICAL DATA DISCOVERY FAQ SITE MAP
JPL Small-Body Database Browser
Search: [ help ]  
20073 Yumiko (1994 AN2)
Classification: Main-belt Asteroid          SPK-ID: 2020073
Ephemeris | Orbit Diagram | Orbital Elements | Physical Parameters | Discovery Circumstances | Close-Approach Data ]

[ show orbit diagram ]
Orbital Elements at Epoch 2457000.5 (2014-Dec-09.0) TDB
Reference: JPL 10 (heliocentric ecliptic J2000)
 Element Value Uncertainty (1-sigma)   Units 
e .06477488117672552 6.7404e-08  
a 2.300734333692263 1.3565e-08 AU
q 2.151704540608133 1.5348e-07 AU
i 6.590559058749555 5.1216e-06 deg
node 305.4544539375978 6.2979e-05 deg
peri 271.6120643466584 7.4282e-05 deg
M 266.4785801948448 4.1247e-05 deg
tp 2457331.636251197812
(2015-Nov-05.13625120)
0.00014618 JED
period 1274.671093312904
3.49
1.1273e-05
3.086e-08
d
yr
n .2824257974379497 2.4978e-09 deg/d
Q 2.449764126776392 1.4444e-08 AU
  Orbit Determination Parameters
   # obs. used (total)      785  
   data-arc span      7620 days (20.86 yr)  
   first obs. used      1993-11-21  
   last obs. used      2014-10-02  
   planetary ephem.      DE431  
   SB-pert. ephem.      SB431-BIG16  
   condition code      0  
   fit RMS      .57067  
   data source      ORB  
   producer      Otto Matic  
   solution date      2014-Oct-09 14:41:02  

Additional Information
 Earth MOID = 1.15773 AU 
 T_jup = 3.580 
[ show covariance matrix ]

Ephemeris | Orbit Diagram | Orbital Elements | Physical Parameters | Discovery Circumstances | Close-Approach Data ]

Physical Parameter Table
Parameter Symbol Value Units Sigma Reference Notes
absolute magnitude H 14.8 mag n/a MPO267783  

20073 Yumiko           Discovered 1994 Jan. 9 by T. Kobayashi and H. Fujii at Oizumi.
Yumiko Fujii (b. 1968) is the wife of the second discoverer.
NOTE: some special characters may not display properly (any characters within {} are an attempt to place the proper accent above a character)
Reference: 20050407/MPCPages.arcLast Updated: 2005-04-15

[ show close-approach data ]
Alternate Designations
 1994 AN2 = 1998 FN111 
Ephemeris | Orbit Diagram | Orbital Elements | Physical Parameters | Discovery Circumstances | Close-Approach Data ]
ABOUT SSD CREDITS/AWARDS PRIVACY/COPYRIGHT GLOSSARY LINKS
FirstGov 2014-Dec-20 15:05 UT
(server date/time)  
NASA Home Page
Site Manager:   Donald K. Yeomans
Webmaster  Alan B. Chamberlin